RH
52 47 47 48 48 46 44 37 20 12 10 8 9 9 10 7 5 3 4 8 10 10 10 8 4 1 1 2 2 2 2 2 2 2 2 2 3 4 4 4 4 5 6
52 49 43 40 38 36 43 42 34 17 13 9 10 10 10 8 7 4 8 11 11 10 9 6 2 1 1 2 2 2 2 2 2 2 2 3 5 6 5 4 5 6 7
58 50 45 43 41 40 38 40 34 30 15 14 12 11 11 9 6 8 12 12 11 9 7 3 1 1 1 2 2 2 2 2 3 3 4 6 6 5 4 5 6 8 11
58 55 47 47 48 45 41 38 34 29 24 15 14 12 11 6 6 11 12 12 10 7 4 2 1 1 1 2 2 2 2 3 5 6 6 6 4 4 5 7 8 11 15
66 58 49 46 54 48 42 37 34 29 25 18 14 12 10 7 10 13 12 11 8 5 3 2 2 1 2 2 2 3 6 6 7 7 5 4 6 8 9 10 10 13 17
68 61 51 46 61 58 46 40 35 31 26 20 12 9 9 11 14 14 13 11 7 4 3 2 2 2 3 3 4 7 8 8 6 5 7 11 14 13 13 12 11 14 17
70 62 56 50 66 60 49 44 38 31 26 20 10 8 9 14 15 15 13 11 7 4 3 2 2 3 4 5 7 10 10 9 9 13 15 19 18 17 16 14 14 17 23
72 65 59 52 53 53 42 41 41 31 23 20 11 8 12 14 16 15 14 12 8 4 3 3 4 4 6 8 11 11 11 13 14 14 21 23 22 18 17 21 26 27 27
73 66 62 52 48 51 42 33 32 32 20 17 13 12 14 17 16 16 15 11 7 5 4 4 5 6 8 12 13 13 13 17 16 17 24 26 27 27 24 25 27 26 25
79 73 70 64 55 44 47 41 28 21 22 15 14 15 17 18 18 17 16 13 8 5 4 5 6 8 10 13 14 13 14 18 18 18 24 25 27 30 29 30 29 27 24
94 83 79 72 62 44 38 42 37 19 16 15 13 16 17 19 19 18 17 15 10 6 5 6 6 8 10 13 13 14 15 17 20 19 23 25 26 31 30 31 32 29 23
91 86 79 73 66 54 37 35 34 23 16 12 12 16 19 20 20 19 19 17 12 8 6 6 7 8 11 13 14 15 15 16 19 21 22 23 27 31 33 32 35 35 28
90 82 72 67 66 63 48 33 31 26 20 14 12 14 22 24 22 21 19 19 16 12 9 8 8 9 10 12 14 15 15 15 17 19 24 22 26 31 34 34 35 38 37
70 69 55 43 48 46 52 40 31 25 20 16 13 13 20 25 25 23 21 20 20 18 15 12 11 11 12 12 13 14 15 14 15 16 26 26 28 35 35 36 35 36 43
59 57 56 44 37 29 35 39 32 26 20 17 14 13 15 22 27 26 23 22 21 21 20 17 15 16 14 13 13 14 14 14 15 16 26 32 29 40 36 36 38 36 44
37 52 54 56 40 30 28 38 36 26 23 17 16 15 18 22 28 30 28 25 23 22 21 19 17 16 15 13 13 13 13 14 16 16 32 41 45 53 39 40 40 36 47
33 38 57 70 61 38 54 61 41 42 30 24 28 19 22 25 25 33 35 31 28 25 24 22 19 18 15 13 13 14 14 14 17 22 46 54 57 53 50 46 41 39 50
90 66 42 52 68 56 97 61 56 60 60 65 40 23 20 27 28 29 35 38 37 37 33 27 22 20 17 16 16 16 16 18 24 36 56 60 59 57 57 48 40 40 51
93 94 89 54 47 51 46 57 43 60 62 77 77 58 40 26 25 27 29 33 39 44 41 38 32 26 22 20 20 19 20 28 39 62 61 59 63 59 54 49 39 38 49
72 71 95 84 92 88 90 97 95 53 56 76 74 77 72 40 30 27 27 27 30 40 43 43 43 40 34 30 26 24 26 57 72 69 57 58 65 59 48 42 35 44 48
35 44 71 76 70 54 70 65 54 50 62 67 67 72 80 77 71 50 35 29 26 28 34 44 54 56 48 41 34 27 39 68 79 71 61 63 67 64 40 40 37 40 52
23 31 43 77 82 71 60 63 63 72 74 52 48 61 70 81 94 95 72 82 78 34 28 35 51 64 65 58 45 34 35 59 78 76 70 63 75 60 49 41 42 43 56
24 21 29 56 75 95 69 66 81 85 94 98 89 50 61 66 88 97 96 96 96 90 60 74 76 59 62 77 72 59 46 61 81 84 70 84 70 73 49 52 46 56 62
20 19 21 27 55 79 87 83 81 72 58 72 96 97 94 85 88 92 96 96 96 97 96 96 96 97 96 96 97 96 94 94 93 91 82 54 79 60 63 50 53 62 56
19 20 20 20 20 19 34 46 54 50 72 61 60 74 94 95 95 95 95 93 93 95 96 95 97 97 98 97 96 98 97 97 96 85 69 83 76 74 61 51 58 53 32
21 23 24 24 24 24 37 62 52 24 32 69 77 84 82 80 76 84 84 93 91 94 90 94 96 95 96 93 96 97 97 95 95 93 84 78 73 65 58 55 64 38 35
Wind_Speed
21 19 18 17 14 11 9 8 7 7 6 6 5 4 4 3 2 2 2 1 2 4 5 6 5 4 4 6 7 8 8 8 8 8 9 10 10 11 12 14 14 15 16
22 20 19 19 18 15 12 10 9 10 8 7 6 5 5 5 3 3 2 2 3 4 5 5 4 3 5 6 7 8 8 7 8 9 9 10 10 11 13 13 15 16 17
23 22 20 18 17 15 14 12 11 11 10 8 7 6 5 5 5 4 2 2 3 4 4 4 3 3 4 5 6 7 7 7 9 10 10 11 12 13 13 14 15 16 18
26 23 20 19 17 16 14 13 13 12 11 9 8 7 6 6 6 4 3 4 3 4 3 3 3 3 4 5 6 6 7 8 10 10 11 12 12 13 14 15 15 18 19
26 23 21 19 18 16 14 13 13 12 11 10 9 8 7 7 6 5 4 4 4 4 3 2 2 2 3 4 5 6 8 9 10 10 11 12 13 14 15 15 16 17 18
26 25 23 20 20 16 14 14 13 12 11 11 10 10 9 8 7 5 4 4 4 3 3 2 1 1 3 4 6 7 8 9 9 11 12 13 14 14 14 15 17 18 19
27 25 22 21 20 17 16 15 14 13 12 11 11 10 10 9 7 6 5 6 4 3 3 2 1 1 3 4 5 6 7 9 9 10 11 13 14 14 15 16 17 19 20
28 26 23 22 20 18 17 15 15 13 12 12 11 11 11 10 9 7 7 6 5 3 3 2 1 1 2 3 5 6 7 8 8 10 11 14 14 15 16 18 20 21 22
32 28 26 24 22 20 18 16 14 15 13 12 12 12 12 11 10 9 8 6 4 4 4 3 2 1 1 2 4 6 7 8 9 8 10 12 13 15 17 18 20 21 22
33 30 28 26 23 22 21 18 16 15 15 14 14 14 13 12 11 10 8 7 5 6 5 4 3 2 1 1 2 4 5 8 9 8 9 11 13 16 18 19 21 23 23
34 33 32 28 24 22 22 20 19 17 16 16 15 15 15 14 13 12 10 9 8 8 7 6 5 4 3 2 3 4 5 7 8 9 9 11 13 16 18 20 23 25 25
35 35 34 29 26 24 22 22 20 19 18 17 17 17 17 17 15 14 12 11 10 9 9 7 7 5 5 5 5 5 6 8 9 11 11 12 14 17 19 21 24 27 26
39 39 37 33 29 26 25 24 22 21 20 19 19 19 19 18 17 17 15 13 13 12 10 9 8 8 8 8 7 8 8 9 10 11 13 14 14 18 19 23 25 28 28
41 39 37 36 31 29 26 26 24 22 21 21 21 21 21 20 19 18 18 16 15 15 13 11 11 11 11 12 11 11 11 12 13 13 15 15 16 18 20 23 26 29 32
44 41 38 35 33 30 26 26 26 23 23 22 22 23 23 23 22 20 19 18 17 17 15 14 14 14 14 15 14 14 14 14 14 15 16 17 17 19 22 24 28 31 34
43 42 40 37 35 32 26 25 24 23 23 23 23 24 25 24 23 22 20 20 20 19 18 17 16 17 18 18 17 17 17 17 17 17 18 18 18 20 21 24 28 31 35
43 44 42 39 35 33 27 25 24 22 23 22 22 25 25 25 24 24 24 24 23 22 21 20 20 20 21 20 19 19 19 20 19 18 18 19 20 22 23 25 28 30 34
52 44 45 43 38 33 28 32 27 26 24 21 23 25 26 26 26 28 27 27 25 26 25 24 24 24 24 23 22 21 21 21 22 21 20 21 23 24 26 28 31 32 37
44 47 46 44 38 34 33 31 32 30 28 26 27 26 27 27 29 30 30 30 30 30 30 27 27 27 28 26 25 24 23 24 24 21 21 23 24 27 28 29 32 34 37
43 44 44 44 40 36 40 40 34 33 32 30 31 29 30 29 32 33 34 34 35 33 33 33 30 30 30 29 28 27 25 26 24 24 24 26 27 27 30 31 32 35 38
42 42 42 42 38 36 41 41 39 37 38 38 36 34 32 34 35 37 38 39 38 37 38 37 36 34 33 32 32 30 27 28 27 27 26 28 30 29 30 33 34 36 41
40 40 39 40 40 39 39 39 39 40 40 44 43 39 35 37 38 37 40 35 43 43 43 41 39 39 38 35 34 34 31 33 32 31 29 32 35 32 32 34 36 37 38
41 38 39 41 40 42 41 43 44 44 45 44 46 45 43 42 40 41 42 38 38 40 45 46 48 45 42 38 38 38 37 36 35 33 31 37 32 33 32 34 35 39 38
42 40 39 40 41 41 41 44 47 48 48 47 43 45 48 45 44 42 41 40 33 34 41 44 39 44 44 40 40 39 40 38 40 35 35 31 36 32 32 33 37 37 32
41 39 37 36 36 38 43 46 50 52 51 52 46 48 49 47 49 49 47 46 46 42 34 30 30 38 39 42 43 48 35 35 35 35 38 37 33 30 31 34 37 34 33
41 39 37 37 38 40 43 47 52 53 53 51 48 49 48 49 52 43 45 47 44 46 47 41 36 39 42 45 43 35 38 36 39 39 35 30 33 30 32 34 35 33 33
Wind_Direction
214 214 213 218 223 225 221 218 222 226 227 226 221 216 218 201 180 188 186 236 337 341 339 343 343 342 11 20 25 27 28 34 41 39 36 39 33 22 17 16 13 15 16
210 213 215 221 226 226 225 224 221 228 225 227 227 220 220 215 209 220 217 302 319 333 335 322 331 347 11 20 25 28 30 31 39 39 35 34 26 17 11 12 10 12 14
212 214 216 220 225 224 224 222 222 227 226 224 230 230 225 220 218 209 231 273 300 313 316 311 334 355 15 25 33 37 34 33 36 36 33 27 17 13 10 11 11 13 11
210 213 215 218 222 221 218 219 222 224 224 221 224 230 229 224 216 213 240 265 289 299 301 313 330 5 26 31 43 41 40 36 33 28 26 22 14 13 11 10 8 8 5
210 215 219 222 222 221 218 219 223 224 221 223 220 224 223 215 212 219 241 269 282 291 304 310 331 20 51 50 51 49 43 34 28 26 22 20 19 14 9 8 4 4 2
212 215 219 223 220 224 224 223 225 225 226 226 224 216 215 214 216 223 238 259 267 282 294 293 307 64 73 62 56 43 40 36 27 28 25 19 15 13 7 5 359 357 356
214 216 219 223 222 225 226 227 227 225 228 229 227 216 211 213 219 229 239 248 247 255 269 278 271 85 74 62 51 46 40 33 27 26 22 18 15 9 5 2 358 355 353
214 217 220 225 225 225 226 228 228 227 228 231 228 218 213 214 219 228 240 244 249 261 248 235 234 90 72 56 46 40 37 30 19 20 22 15 9 5 4 1 356 351 350
219 221 223 226 229 229 230 228 229 228 229 228 229 222 221 222 223 230 237 242 253 258 247 233 211 171 84 48 36 27 20 22 11 14 15 10 6 5 359 353 353 349 346
223 225 227 228 232 233 235 236 234 231 228 230 229 227 228 229 232 237 237 239 246 250 237 234 219 215 240 18 10 9 3 8 360 358 357 357 355 354 356 353 347 344 341
225 228 230 231 233 234 235 238 239 235 231 229 230 232 233 233 236 241 241 243 244 246 244 234 232 236 259 295 323 334 342 339 346 344 340 343 345 346 351 350 348 344 340
228 232 234 232 233 235 234 235 237 239 236 232 229 231 235 238 239 243 243 248 252 251 249 242 249 250 263 276 292 307 314 318 332 336 330 331 336 340 343 346 350 344 338
231 234 236 236 233 236 237 235 237 239 240 237 236 234 236 240 242 241 244 244 251 253 255 253 253 258 265 274 282 294 301 308 315 323 329 324 326 335 334 340 342 343 338
230 233 235 237 237 234 239 241 239 241 242 241 238 239 237 237 241 243 244 244 245 249 251 255 258 262 270 276 282 290 297 302 305 315 323 319 322 327 329 333 337 337 339
229 233 235 237 240 235 234 241 243 242 243 244 244 241 240 241 241 242 245 250 251 251 250 256 263 264 269 276 280 285 289 295 302 309 315 317 319 323 325 329 332 332 337
229 231 234 235 238 239 235 235 245 244 245 245 248 248 246 243 247 252 252 252 255 257 260 261 265 271 273 276 280 285 291 295 299 304 311 314 316 319 321 325 328 329 332
227 230 232 233 237 241 237 236 241 242 247 248 251 254 252 253 252 252 258 260 263 265 266 269 271 272 277 281 286 291 294 296 298 301 307 313 313 315 317 321 322 325 328
219 223 230 231 230 234 240 242 240 245 245 248 251 251 255 256 256 258 256 261 263 266 267 270 273 277 278 281 286 290 294 295 295 300 304 309 311 311 315 317 315 320 326
232 231 225 230 236 233 232 246 245 248 250 252 254 257 255 256 258 260 262 263 262 264 266 267 271 273 275 278 282 284 286 287 289 289 296 301 306 308 310 313 310 313 322
231 233 234 238 239 235 241 237 239 248 253 254 256 260 264 261 261 260 261 261 264 266 267 267 269 273 276 278 277 277 278 281 283 288 293 295 299 303 306 309 306 314 317
227 234 235 240 241 248 250 249 256 258 253 252 254 255 257 262 264 265 265 266 266 265 265 266 269 271 273 274 274 275 276 276 277 282 290 289 294 299 302 308 308 311 316
222 228 234 236 241 242 244 247 254 255 258 259 256 255 254 257 259 264 266 273 269 265 265 270 272 273 274 278 277 274 270 273 274 278 282 286 296 298 302 305 306 309 313
220 226 232 236 241 243 245 246 247 251 257 261 260 259 258 258 260 262 269 275 278 267 267 268 266 265 271 276 275 274 271 269 271 277 282 287 296 293 298 301 307 310 310
221 222 225 234 239 244 249 247 251 251 253 255 259 264 260 260 264 263 272 270 270 275 270 272 284 283 272 272 279 271 264 266 267 266 278 281 288 288 295 301 308 308 305
224 228 232 237 244 249 251 251 248 251 254 258 258 260 268 271 271 265 269 274 277 278 275 282 289 291 284 280 284 286 261 259 262 278 283 290 287 294 296 301 307 303 302
226 233 237 243 250 254 256 256 254 253 252 255 259 257 259 266 270 271 272 276 278 276 283 280 281 281 276 280 282 262 252 256 266 298 288 291 293 293 295 304 304 301 300